Location: Ferques
(50.8300°N, 1.7599°E)
Time: 20:38:54
(UTC+00:00)

Cosmos 1707 - Pass Details

Date: 19 May 2025
Orbit: 422 x 430 km, 82.5° (Epoch: 21 June)

Event Time Altitude Azimuth Distance (km) Brightness Sun altitude
Exits shadow 22:54:25 37° 104° (ESE) 699 3.1 -18.2°
Maximum altitude 22:54:38 37° 94° (E) 693 3.1 -18.2°
Drops below altitude 10° 22:57:47 10° 25° (NNE) 1,552 5.9 -18.3°
Sets 22:59:55 0° 17° (NNE) 2,428 7.2 -18.3°
